Regional Weather Roundup
Issued by NWS State College, PA

Home | Current Version | Previous Version | Graphics & Text | Print | Product List | Glossary Off
Versions: 1 2 3 4 5 6 7 8 9 10 11 12 13 14 15 16 17 18 19 20 21 22 23 24 25 26 27 28 29 30 31 32 33 34 35 36 37 38 39 40 41 42 43 44 45 46 47 48 49 50

000
ASUS41 KCTP 311603
RWRCTP

REGIONAL WEATHER ROUNDUP
NATIONAL WEATHER SERVICE STATE COLLEGE PA
1200 PM EDT FRI JUL 31 2015

Note: "fair" indicates few or no clouds below 12,000 feet with no
significant weather and/or obstructions to visibility.

* = STATION THAT DOES NOT REPORT PRECIPITATION /E.G. RAIN...SNOW...ETC/
    THUNDER OR FOG.

PAZ002>004-007>009-013>016-020>023-029>032-311700-
WESTERN PENNSYLVANIA

CITY           SKY/WX    TMP DP  RH WIND       PRES   REMARKS
ERIE           SUNNY     80  62  54 W16G23    29.93S
MEADVILLE      SUNNY     81  59  47 VRB6      29.97F
FRANKLIN*      SUNNY     81  57  44 W8        29.99F
NEW CASTLE     FAIR      85  60  42 W6        29.98F
BEAVER COUNTY  SUNNY     81  59  47 W7        29.99F
BUTLER*        SUNNY     82  59  44 W8        30.01F
PITTSBURGH INT MOSUNNY   81  56  42 W10       29.99F
PITTSBURGH     SUNNY     81  52  36 W10       30.00S
INDIANA*       PTSUNNY   77  61  57 NW7G16    30.03F
LATROBE        MOSUNNY   79  59  50 SW7       30.02S
WASHINGTON CO* NOT AVBL
$$

PAZ004>006-010>012-017>019-024>028-033>037-041-042-045-046-049>053-311700-
CENTRAL PENNSYLVANIA

CITY           SKY/WX    TMP DP  RH WIND       PRES   REMARKS
BRADFORD       MOSUNNY   77  55  46 W14G20    29.98F
DUBOIS         MOSUNNY   80  60  50 W12       29.99F
CLEARFIELD     NOT AVBL
JOHNSTOWN      MOSUNNY   75  56  51 W7        30.04F
ALTOONA        MOSUNNY   81  60  48 NW8       30.00F
STATE COLLEGE  MOSUNNY   79  61  53 W10       29.97F
WILLIAMSPORT   SUNNY     82  58  43 W6        29.91F
SELINSGROVE    SUNNY     83  63  50 CALM      29.94F
FT INDIANTOWN  SUNNY     83  59  43 VRB3      29.93S
CAPITAL CITY   SUNNY     86  57  37 VRB7      29.93F
HARRISBURG     SUNNY     84  59  42 W5        29.92F
YORK           SUNNY     82  64  54 NW6       29.94F
$$

PAZ038>040-043-044-047-048-054-055-060>062-067>071-311700-
EASTERN PENNSYLVANIA

CITY           SKY/WX    TMP DP  RH WIND       PRES   REMARKS
SCRANTON       MOSUNNY   81  58  45 W7        29.93F
MOUNT POCONO   SUNNY     76  52  43 NW15G22   29.97S
ALLENTOWN      SUNNY     84  61  45 N8        29.91F
QUAKERTOWN*    SUNNY     82  63  51 NW5       29.93S
READING        SUNNY     83  60  45 NW5       29.91F
LANCASTER      LGT RAIN  82  62  50 NW6       29.93F
COATESVILLE    SUNNY     81  64  57 NW6       29.95F
POTTSTOWN      SUNNY     82  63  52 N8        29.93F
BLUE BELL      SUNNY     84  64  51 NW3       29.90F
DOYLESTOWN     SUNNY     83  61  47 VRB5      29.91F
WILLOW GROVE   NOT AVBL
NORTH PHILA    SUNNY     88  53  30 NW8       29.91F
PHILADELPHIA   MOSUNNY   86  55  34 W8        29.90F
$$


USA.gov is the U.S. government's official web portal to all federal, state and local government web resources and services.